AirNav   Pilot Hours Calculator
 
 1574 users online  

RI07 Wing-Over Farm Airport
Tiverton, Rhode Island, USA

GOING TO TIVERTON?


FAA INFORMATION EFFECTIVE 26 JANUARY 2023

Location

FAA Identifier: RI07
Lat/Long: 41-34-44.3710N 071-08-30.1590W
41-34.739517N 071-08.502650W
41.5789919,-71.1417108
(estimated)
Elevation: 113 ft. / 34.4 m (surveyed)
Variation: 15W (1985)
From city: 3 miles SE of TIVERTON, RI
Time zone: UTC -5 (UTC -4 during Daylight Saving Time)
Zip code: 02878

Airport Operations

Airport use: Private use. Permission required prior to landing
Activation date: 02/1972
Control tower: no
ARTCC: BOSTON CENTER
FSS: BRIDGEPORT FLIGHT SERVICE STATION
Attendance: UNATNDD
Wind indicator: no
Segmented circle: no

Airport Communications

WX ASOS at UUU (7 nm SW): 132.075 (401-846-5910)
WX ASOS at EWB (10 nm NE): 126.85 (508-992-0195)
WX ASOS at OQU (12 nm W): 118.6
WX ASOS at PVD (15 nm NW): 124.2 (401-734-2818)
WX ASOS at TAN (19 nm N): 132.675 (508-824-5005)

Nearby radio navigation aids

VOR radial/distance  VOR name  Freq  Var
PVDr138/15.6PROVIDENCE VOR/DME115.6014W
MVYr310/26.2MARTHAS VINEYARD VOR/DME114.5015W
SEYr053/31.5SANDY POINT VOR/DME117.8015W
ORWr102/38.5NORWICH VOR/DME110.0014W
PUTr140/38.7PUTNAM VOR/DME117.4014W

Airport Services

Airframe service: NONE
Powerplant service: NONE

Runway Information

Runway N/S

Dimensions: 1200 x 100 ft. / 366 x 30 m
Surface: turf
RUNWAY N  RUNWAY S
Traffic pattern: leftleft
Obstructions: treesnone

Airport Ownership and Management from official FAA records

Ownership: Privately-owned
Owner: MARJORIE E. JENSEN
1513 CRANDALL ROAD
TIVERTON, RI 02878
Phone 401-624-3734
Manager: MARJORIE E. JENSEN
1724 R. CRANDALL ROAD
TIVERTON, RI 02878
Phone 401-624-3734

Additional Remarks

FOR CD CTC PROVIDENCE APCH AT 401-738-8945, WHEN APCH CLSD CTC BOSTON ARTCC AT 603-879-6859.

Instrument Procedures

There are no published instrument procedures at RI07.

Some nearby airports with instrument procedures:

KUUU - Newport State Airport (7 nm SW)
KEWB - New Bedford Regional Airport (10 nm NE)
KOQU - Quonset State Airport (12 nm W)
KPVD - Rhode Island TF Green International Airport (15 nm NW)
KTAN - Taunton Municipal Airport - King Field (19 nm N)
 
Loc | Ops | Rwys | IFR | FBO | Links
Com | Nav | Svcs | Stats | Notes
Area around RI07 (Wing-Over Farm Airport)
 
Road maps at: MapQuest Bing Google
 
Aerial photo
No photo
 
Sectional chart

 
Airport distance calculator
Flying to Wing-Over Farm Airport? Find the distance to fly.

From to RI07

Sunrise and sunset
Times for 08-Feb-2023
 Local
(UTC-5)
 Zulu
(UTC)
Morning civil twilight06:2111:21
Sunrise06:5011:50
Sunset17:0822:08
Evening civil twilight17:3722:37

Current date and time
Zulu (UTC)  08-Feb-2023 17:01:15
Local (UTC-5)  08-Feb-2023 12:01:15
 
METAR
KUUU 
7nm SW 
081653Z AUTO 32013KT 10SM OVC039 07/M01 A3012 RMK AO2 SLP199 T00671011
KEWB 
11nm NE 
081653Z 30013G21KT 10SM BKN041 09/M01 A3010 RMK AO2 SLP194 T00891011
KOQU 
12nm W 
081650Z 36015KT 10SM BKN041 08/M02 A3014
KPVD 
15nm NW 
081651Z 32012G20KT 10SM BKN041 07/M02 A3013 RMK AO2 SLP203 T00721017
KTAN 
19nm N 
081652Z AUTO A3011 RMK AO2 SLPNO PWINO FZRANO TSNO $
TAF
KPVD 
15nm NW 
081126Z 0812/0912 27008KT P6SM FEW050 FM081500 30010G20KT P6SM SCT200 FM082300 28006KT P6SM SKC FM090300 25003KT P6SM FEW250 FM090700 00000KT P6SM SCT250
NOTAMs
Click for the latest NOTAMs
NOTAMs are issued by the DoD/FAA and will open in a separate window not controlled by AirNav.

 

 
 

Would you like to see your business listed on this page?

 If your business provides an interesting product or service to pilots, flight crews, aircraft, or users of the Wing-Over Farm Airport, you should consider listing it here.  To start the listing process, click on the button below
 
Add a business
 

Other Pages about Wing-Over Farm Airport

Update a link
 
Copyright © AirNav, LLC. All rights reserved. Privacy Policy  Contact